Погода в Лионе

Франция     45°45′35″N   4°50′12″E
темп.,
°C
ветер,
м/с
пор.,
м/с
влажн.,
%
обл.,
%
осадки,
мм/ч
давл.,
гПа
погр.,
м
4 марта, чт
чт401:00+8ююз116665 0.0 102840
04:00+7юз01728 0.0 102636
07:00+6зюз01774 0.0 102530
10:00+10ююв11600 0.0 1023286
13:00+14в114724 0.0 1021643
16:00+15в214570 0.0 1019793
19:00+12ссв115584 0.1 101924
22:00+10ссз127397 0.1 1021135
5 марта, пт
пт501:00+9с127994 0.1 1021115
04:00+7ссз248763 0.0 1020237
07:00+6с258666 0.0 1020295
10:00+8с3779100 0.0 1020494
13:00+10с566076 0.1 10201169
16:00+10с585931 0.1 10191340
19:00+7ссз4107550 0.1 1021774
22:00+5ссз387964 0.0 1023535
6 марта, сб
сб601:00+4ссз258146 0.0 1024350
04:00+3ссз237882 0.0 1024358
07:00+3ссз238091 0.0 1025300
10:00+4ссз2274100 0.0 1025398
13:00+9св115893 0.0 1024807
16:00+10св215552 0.0 1023810
19:00+7св126931 0.0 1024184
22:00+6сз11740 0.0 102562
7 марта, вс
вс701:00+5ю01776 0.0 102631
04:00+5в018081 0.0 102549
07:00+4в008473 0.0 102552
10:00+8в117218 0.0 1024366
13:00+12в115512 0.1 1022747
16:00+13ссв115238 0.3 10201207
19:00+9с356934 0.4 1021395
22:00+7ссз24779 0.0 1022189
8 марта, пн
пн801:00+5сз24774 0.0 1021206
04:00+4сз23820 0.0 1020204
07:00+2ссз23810 0.0 1021200
10:00+5с34600 0.0 1021488
13:00+9с34500 0.0 10201034
16:00+10ссв56440 0.0 10191237
19:00+6ссз37610 0.0 1020480
22:00+5сз25660 0.0 1022288